Historyczne dane pomiarowe

Dodano dane terminowe – wersja testowa.

Dane z okresu 1951-2019

Wersja bazy: 1.34 [2019-03-16, lista zmian], aktualizacja planowana na 2019-04-15

Dane meteo z obszaru Polski uzyskane na podstawie danych udostępnionych przez Instytut Meteorologii i Gospodarki Wodnej – Państwowy Instytut Badawczy.

 

Wybierz Datę:    

       

TemperaturaWilgotnośćZachmurzenieWiatrCiśnienieWidzialnośćZjawiska
 Data    tng td wb rh cc ccl cl cm ch dir g1 g2 mslp ppp      
1973-04-29 00:00:00 1.8--- 1.3 1.696wxwx13wx--- 826.4 0.0---wx
1973-04-29 01:00:00 2.5------wxwx10wx--- 826.3----wxw1
1973-04-29 02:00:00 3.0------wxwxwx7wx--- 826.4----wxw1
1973-04-29 03:00:00 2.4--- 2.4 2.4100wxwx6wx--- 826.2----wxw1
1973-04-29 04:00:00 2.3------wxwx8wx--- 826.1----wxw1
1973-04-29 05:00:00 1.9------wxwx5wx--- 826.2----wxw1
1973-04-29 06:00:00 1.9--- 1.9 1.9100wxwx14wx--- 826.2 0.0---wxw1
1973-04-29 07:00:00 1.6------wxwx10wx--- 826.4----wxw1
1973-04-29 08:00:00 2.4------wxwx11wx--- 826.4----wxw1
1973-04-29 09:00:00 2.6--- 2.6 2.6100wxwxwxwx8wx--- 827.1----wxw1
1973-04-29 10:00:00 3.0------wxwxwx7wx--- 827.0----wx
1973-04-29 11:00:00 3.0------wxwxwx8wx--- 826.9----wx
1973-04-29 12:00:00 3.0--- 3.0 3.0100wxwx9wx--- 827.4 0.0---wx
1973-04-29 13:00:00 3.0------wxwx7wx--- 827.9----wxw1
1973-04-29 14:00:00 3.4------wxwx8wx--- 827.6----wxw1
1973-04-29 15:00:00 3.7--- 3.7 3.7100wxwx7wx--- 827.3----wxw1
1973-04-29 16:00:00 4.0------wxwx6wx--- 827.8----wx
1973-04-29 17:00:00 3.6------wxwxwxwxwx7wx--- 827.8----wxw1
1973-04-29 18:00:00 3.5--- 3.5 3.5100wxwx7wx--- 828.3 0.8---wxw1
1973-04-29 19:00:00 2.2------wxwxwx9wx--- 828.8----wxw1
1973-04-29 20:00:00 2.4------wxwxwx7wx--- 829.1----wxw1
1973-04-29 21:00:00 2.6--- 2.6 2.6100wxwxwx14wx--- 829.1----wxw1
1973-04-29 22:00:00 3.0------wxwxwx18wx--- 829.9----wx
1973-04-29 23:00:00 3.0------wxwxwx16wx--- 830.2----wx

 

Źródłem pochodzenia danych jest Instytut Meteorologii i Gospodarki Wodnej – Państwowy Instytut Badawczy. Dane Instytutu Meteorologii i Gospodarki Wodnej – Państwowego Instytutu Badawczego zostały przetworzone.

Dane źródłowe można odnaleźć na stronie https://dane.imgw.pl